Simultaneous Nadir Overpasses (SNOs) Predictions

Prediction of SNOs near equator between NOAA-19 and NPP Satellite Orbit:

Table of predicted SNOs near equator for the next 14.0 days since TLE Epoch: 6/10/2012
Index Date (NOAA-19) Time (NOAA-19) NOAA-19 Lat,Lon Date (NPP) Time (NPP) NPP Lat,Lon Distance(km) Time Diff (sec)
1 06/10/2012 01:27:52 29.95, 176.03 06/10/2012 01:20:54 29.88, 175.62 40.48 418
2 06/10/2012 02:18:50 -29.96, -16.71 06/10/2012 02:11:35 -29.87, -17.05 33.93 435
3 06/10/2012 03:09:58 29.99, 150.50 06/10/2012 03:02:25 29.95, 150.23 26.63 453
4 06/10/2012 04:00:56 -30.00, -42.24 06/10/2012 03:53:06 -29.94, -42.44 20.11 470
5 06/10/2012 04:52:03 29.97, 124.98 06/10/2012 04:43:55 29.96, 124.85 12.83 488
6 06/10/2012 05:43:01 -29.98, -67.76 06/10/2012 05:34:36 -29.95, -67.82 6.53 505
7 06/10/2012 06:33:19 27.10, 100.24 06/10/2012 06:24:36 27.10, 100.25 0.07 523
8 06/10/2012 07:19:29 -10.41, -88.38 06/10/2012 07:10:32 -10.41, -88.37 1.01 537
9 06/10/2012 08:08:24 2.52, 80.64 06/10/2012 07:59:07 2.51, 80.71 8.14 557
10 06/10/2012 08:59:32 -3.29,-112.27 06/10/2012 08:50:01 -3.31,-112.14 14.40 571
11 06/10/2012 09:51:05 4.62, 54.64 06/10/2012 09:41:13 4.64, 54.86 24.35 592
12 06/10/2012 10:42:06 -4.96,-138.17 06/10/2012 10:32:06 -5.38,-137.98 50.96 600
13 06/21/2012 23:18:29 29.99,-151.61 06/21/2012 23:13:46 29.82,-152.60 97.54 283
14 06/22/2012 00:09:30 -29.98, 15.64 06/22/2012 00:04:27 -29.79, 14.73 89.80 303
15 06/22/2012 01:00:34 29.98,-177.13 06/22/2012 00:55:16 29.83,-177.98 83.72 318
16 06/22/2012 01:51:35 -29.97, -9.88 06/22/2012 01:45:57 -29.80, -10.65 75.98 338
17 06/22/2012 02:42:39 29.96, 157.35 06/22/2012 02:36:46 29.84, 156.64 69.89 353
18 06/22/2012 03:33:40 -29.95, -35.40 06/22/2012 03:27:27 -29.81, -36.02 62.16 373
19 06/22/2012 04:24:44 29.95, 131.83 06/22/2012 04:18:16 29.85, 131.26 56.07 388
20 06/22/2012 05:15:46 -29.99, -60.93 06/22/2012 05:08:58 -29.88, -61.42 48.29 408
21 06/22/2012 06:06:50 29.99, 106.30 06/22/2012 05:59:47 29.92, 105.87 42.20 423
22 06/22/2012 06:57:51 -29.98, -86.45 06/22/2012 06:50:28 -29.89, -86.79 34.49 443
23 06/22/2012 07:48:55 29.98, 80.78 06/22/2012 07:41:17 29.93, 80.49 28.38 458
24 06/22/2012 08:39:56 -29.96,-111.97 06/22/2012 08:31:58 -29.90,-112.17 20.72 478
25 06/22/2012 09:31:00 29.96, 55.27 06/22/2012 09:22:47 29.94, 55.12 14.56 493
26 06/22/2012 10:22:01 -29.95,-137.48 06/22/2012 10:13:28 -29.91,-137.55 7.16 513
27 06/22/2012 11:13:05 29.95, 29.75 06/22/2012 11:04:17 29.95, 29.74 0.80 528
28 06/22/2012 11:58:41 -11.08,-158.26 06/22/2012 11:49:36 -11.08,-158.26 0.54 545
29 06/22/2012 12:47:27 2.86, 10.84 06/22/2012 12:38:05 2.84, 10.90 6.32 562
30 06/22/2012 13:38:40 -3.73, 177.90 06/22/2012 13:29:01 -3.75, 178.03 13.87 579
31 06/22/2012 14:30:07 4.89, -15.14 06/22/2012 14:20:10 4.91, -14.94 22.43 597
32 06/22/2012 15:21:06 -4.93, 152.11 06/22/2012 15:11:06 -5.81, 152.19 98.15
